TimeEST,TemperatureF,Dew PointF,Humidity,Sea Level PressureIn,VisibilityMPH,Wind Direction,Wind SpeedMPH,Gust SpeedMPH,PrecipitationIn,Events,Conditions,WindDirDegrees,DateUTC
12:35 AM,60.8,57.2,88,30.26,10.0,South,15.0,19.6,N/A,,Mostly Cloudy,180,2012-11-13 05:35:00
12:55 AM,60.8,57.2,88,30.26,10.0,South,16.1,20.7,N/A,,Partly Cloudy,180,2012-11-13 05:55:00
1:15 AM,60.8,57.2,88,30.25,10.0,South,13.8,19.6,N/A,,Partly Cloudy,190,2012-11-13 06:15:00
1:35 AM,59.0,57.2,94,30.25,10.0,South,12.7,18.4,N/A,,Partly Cloudy,190,2012-11-13 06:35:00
1:55 AM,59.0,57.2,94,30.24,10.0,South,13.8,20.7,N/A,,Scattered Clouds,190,2012-11-13 06:55:00
2:15 AM,60.8,57.2,88,30.24,10.0,South,16.1,19.6,N/A,,Scattered Clouds,190,2012-11-13 07:15:00
2:35 AM,60.8,57.2,88,30.23,10.0,South,15.0,23.0,N/A,,Scattered Clouds,190,2012-11-13 07:35:00
2:55 AM,59.0,55.4,88,30.22,10.0,South,13.8,20.7,N/A,,Mostly Cloudy,190,2012-11-13 07:55:00
3:15 AM,59.0,55.4,88,30.22,10.0,South,16.1,21.9,N/A,,Mostly Cloudy,190,2012-11-13 08:15:00
3:35 AM,57.2,55.4,94,30.20,10.0,South,17.3,24.2,N/A,,Mostly Cloudy,190,2012-11-13 08:35:00
3:55 AM,57.2,55.4,94,30.20,10.0,South,15.0,23.0,N/A,,Mostly Cloudy,190,2012-11-13 08:55:00
4:15 AM,57.2,55.4,94,30.19,10.0,South,13.8,19.6,N/A,,Mostly Cloudy,180,2012-11-13 09:15:00
4:36 AM,59.0,57.2,94,30.19,10.0,South,13.8,-,N/A,,Mostly Cloudy,190,2012-11-13 09:36:00
4:55 AM,59.0,57.2,94,30.19,10.0,South,12.7,20.7,N/A,,Overcast,190,2012-11-13 09:55:00
5:15 AM,59.0,57.2,94,30.19,10.0,SSW,16.1,23.0,N/A,,Overcast,200,2012-11-13 10:15:00
5:35 AM,59.0,57.2,94,30.19,10.0,SSW,16.1,20.7,N/A,,Overcast,200,2012-11-13 10:35:00
5:55 AM,59.0,57.2,94,30.19,10.0,South,13.8,20.7,N/A,,Overcast,190,2012-11-13 10:55:00
6:15 AM,59.0,57.2,94,30.19,10.0,South,16.1,21.9,N/A,,Overcast,190,2012-11-13 11:15:00
6:35 AM,59.0,57.2,94,30.18,10.0,South,15.0,20.7,N/A,,Mostly Cloudy,190,2012-11-13 11:35:00
7:15 AM,57.2,55.4,94,30.19,10.0,South,16.1,21.9,N/A,,Mostly Cloudy,190,2012-11-13 12:15:00
7:35 AM,59.0,55.4,88,30.19,10.0,South,15.0,24.2,N/A,,Partly Cloudy,190,2012-11-13 12:35:00
7:55 AM,59.0,55.4,88,30.19,10.0,SSW,15.0,24.2,N/A,,Clear,200,2012-11-13 12:55:00
8:15 AM,59.0,55.4,88,30.19,5.0,SSW,18.4,25.3,0.02,,Mostly Cloudy,200,2012-11-13 13:15:00
8:35 AM,59.0,55.4,88,30.19,10.0,South,13.8,20.7,0.02,,Mostly Cloudy,190,2012-11-13 13:35:00
8:55 AM,59.0,57.2,94,30.18,10.0,SSW,16.1,23.0,0.02,,Mostly Cloudy,200,2012-11-13 13:55:00
9:15 AM,60.8,57.2,88,30.18,10.0,South,17.3,24.2,N/A,,Overcast,190,2012-11-13 14:15:00
9:35 AM,60.8,57.2,88,30.19,7.0,SSW,18.4,26.5,0.01,,Mostly Cloudy,210,2012-11-13 14:35:00
9:55 AM,60.8,57.2,88,30.19,5.0,SSW,16.1,24.2,0.05,,Overcast,200,2012-11-13 14:55:00
10:15 AM,53.6,51.8,94,30.23,5.0,NW,16.1,25.3,0.11,,Overcast,320,2012-11-13 15:15:00
10:35 AM,51.8,50.0,94,30.23,4.0,NW,13.8,20.7,0.18,,Overcast,320,2012-11-13 15:35:00
10:55 AM,51.8,48.2,88,30.25,5.0,NW,17.3,25.3,0.21,,Overcast,320,2012-11-13 15:55:00
11:15 AM,51.8,48.2,88,30.24,7.0,NNW,16.1,23.0,0.03,,Overcast,330,2012-11-13 16:15:00
11:35 AM,51.8,48.2,88,30.24,3.0,NNW,11.5,18.4,0.08,,Overcast,330,2012-11-13 16:35:00
11:55 AM,51.8,48.2,88,30.24,3.0,North,9.2,-,0.15,,Overcast,350,2012-11-13 16:55:00
12:35 PM,53.6,48.2,82,30.23,5.0,NNW,6.9,-,0.05,,Overcast,340,2012-11-13 17:35:00
12:55 PM,51.8,48.2,88,30.23,8.0,NNW,4.6,-,0.06,,Overcast,340,2012-11-13 17:55:00
1:15 PM,53.6,48.2,82,30.22,10.0,NNW,4.6,-,N/A,,Overcast,340,2012-11-13 18:15:00
1:55 PM,53.6,46.4,77,30.23,10.0,NNW,8.1,-,N/A,,Overcast,330,2012-11-13 18:55:00
2:15 PM,53.6,48.2,82,30.23,10.0,NW,10.4,-,N/A,,Overcast,320,2012-11-13 19:15:00
2:55 PM,51.8,46.4,82,30.25,8.0,NW,10.4,-,0.02,,Mostly Cloudy,320,2012-11-13 19:55:00
3:15 PM,51.8,46.4,82,30.26,7.0,NW,9.2,-,0.02,,Overcast,310,2012-11-13 20:15:00
3:35 PM,51.8,46.4,82,30.26,3.0,NW,12.7,17.3,0.05,,Overcast,320,2012-11-13 20:35:00
3:55 PM,51.8,46.4,82,30.27,9.0,NNW,17.3,-,0.06,,Overcast,330,2012-11-13 20:55:00
4:15 PM,51.8,46.4,82,30.27,4.0,NNW,15.0,20.7,0.05,,Overcast,330,2012-11-13 21:15:00
4:35 PM,50.0,46.4,87,30.28,9.0,NNW,15.0,21.9,0.09,,Mostly Cloudy,330,2012-11-13 21:35:00
4:55 PM,48.2,42.8,82,30.30,9.0,NNW,15.0,-,0.11,,Overcast,330,2012-11-13 21:55:00
5:16 PM,48.2,42.8,82,30.31,8.0,NNW,15.0,21.9,0.01,,Overcast,340,2012-11-13 22:16:00
5:35 PM,48.2,42.8,82,30.30,10.0,NNW,18.4,24.2,0.02,,Overcast,340,2012-11-13 22:35:00
5:55 PM,48.2,42.8,82,30.31,10.0,NNW,15.0,20.7,0.02,,Overcast,340,2012-11-13 22:55:00
6:16 PM,48.2,39.2,71,30.31,10.0,NNW,16.1,25.3,N/A,,Overcast,340,2012-11-13 23:16:00
6:35 PM,48.2,41.0,76,30.33,10.0,NNW,19.6,25.3,N/A,,Overcast,330,2012-11-13 23:35:00
6:55 PM,48.2,41.0,76,30.34,10.0,NNW,21.9,26.5,N/A,,Overcast,330,2012-11-13 23:55:00
7:15 PM,46.4,39.2,76,30.34,10.0,NNW,19.6,27.6,N/A,,Overcast,330,2012-11-14 00:15:00
7:35 PM,46.4,39.2,76,30.34,10.0,NNW,20.7,26.5,N/A,,Overcast,330,2012-11-14 00:35:00
7:56 PM,46.4,39.2,76,30.33,10.0,North,18.4,25.3,N/A,,Overcast,350,2012-11-14 00:56:00
8:15 PM,46.4,37.4,71,30.36,10.0,NNW,15.0,25.3,N/A,,Overcast,340,2012-11-14 01:15:00
8:35 PM,46.4,39.2,76,30.36,10.0,North,17.3,26.5,0.01,,Overcast,350,2012-11-14 01:35:00
9:15 PM,46.4,39.2,76,30.37,10.0,North,16.1,24.2,N/A,,Overcast,350,2012-11-14 02:15:00
9:35 PM,46.4,39.2,76,30.37,10.0,North,15.0,23.0,N/A,,Overcast,360,2012-11-14 02:35:00
9:55 PM,46.4,41.0,81,30.37,10.0,North,15.0,18.4,N/A,,Overcast,360,2012-11-14 02:55:00
10:15 PM,46.4,42.8,87,30.38,10.0,NNE,17.3,21.9,N/A,,Overcast,30,2012-11-14 03:15:00
10:35 PM,46.4,42.8,87,30.39,10.0,NNE,16.1,23.0,N/A,,Overcast,30,2012-11-14 03:35:00
10:36 PM,46.4,42.8,87,30.39,10.0,NNE,17.3,23.0,N/A,,Overcast,30,2012-11-14 03:36:00
11:15 PM,44.6,39.2,81,30.40,10.0,NNE,18.4,25.3,N/A,,Overcast,20,2012-11-14 04:15:00
11:35 PM,44.6,41.0,87,30.39,9.0,NNE,20.7,27.6,N/A,,Overcast,30,2012-11-14 04:35:00
11:55 PM,44.6,39.2,81,30.40,10.0,NNE,19.6,27.6,N/A,,Overcast,30,2012-11-14 04:55:00